FW9290 Weather Reports


Display with metric or nautical units.
time (UTC)temp
F
wind
direction
speed
MPH
gust
MPH
rain 1hr
in
rain 24hr
in
rain mn
in
humidity
%
barometer
mb
20260504174021 81 0 0.0 3.0 0.00 0.00 0.00 59 1014.9
20260504173522 81 0 0.0 3.0 0.00 0.00 0.00 60 1014.9
20260504173035 82 0 0.0 3.0 0.00 0.00 0.00 59 1014.9
20260504172521 82 27 0.0 3.0 0.00 0.00 0.00 58 1015.1
20260504172019 82 0 0.0 3.0 0.00 0.00 0.00 59 1015.2
20260504171540 81 0 0.0 3.0 0.00 0.00 0.00 60 1015.4
20260504171019 80 56 0.0 3.0 0.00 0.00 0.00 60 1015.3
20260504170519 80 236 0.0 3.0 0.00 0.00 0.00 61 1015.4
20260504151021 79 0 0.0 2.0 0.00 0.00 0.00 62 1016.4
20260504150519 80 139 0.0 1.0 0.00 0.00 0.00 63 1016.3
20260504141022 72 0 0.0 1.0 0.00 0.00 0.00 71 1016.5
20260504140518 71 100 0.0 1.0 0.00 0.00 0.00 71 1016.4
20260504130520 64 0 0.0 1.0 0.00 0.00 0.00 80 1016.3
20260504110519 59 0 0.0 0.0 0.00 0.00 0.00 86 1016.0
20260504100525 59 0 0.0 0.0 0.00 0.00 0.00 82 1016.4
20260504081539 61 0 0.0 0.0 0.00 0.00 0.00 78 1016.8
20260504081021 61 0 0.0 0.0 0.00 0.00 0.00 77 1016.9
20260504080522 61 0 0.0 0.0 0.00 0.00 0.00 77 1017.2
20260504050518 63 0 0.0 0.0 0.00 0.00 0.00 74 1018.8
20260504045519 63 0 0.0 0.0 0.00 0.00 0.00 73 1018.7
20260504045025 63 0 0.0 0.0 0.00 0.00 0.00 73 1018.7
20260504044537 63 0 0.0 0.0 0.00 0.00 0.00 73 1018.7
20260504044021 63 0 0.0 0.0 0.00 0.00 0.00 72 1018.7
20260504043519 63 0 0.0 0.0 0.00 0.00 0.00 72 1018.9
20260504043046 63 0 0.0 0.0 0.00 0.00 0.00 71 1018.8
20260504042519 64 0 0.0 0.0 0.00 0.00 0.00 71 1019.0
20260504042019 64 0 0.0 0.0 0.00 0.00 0.00 70 1019.0
20260504041536 64 0 0.0 0.0 0.00 0.00 0.00 70 1019.0
20260504041018 64 0 0.0 0.0 0.00 0.00 0.00 70 1019.0
20260504040518 64 0 0.0 0.0 0.00 0.00 0.00 69 1018.9
20260504040043 64 0 0.0 0.0 0.00 0.00 0.00 69 1018.9
20260504035518 65 0 0.0 1.0 0.00 0.00 0.00 69 1018.9
20260504035019 65 0 0.0 1.0 0.00 0.00 0.00 69 1018.9
20260504034545 65 0 0.0 0.0 0.00 0.00 0.00 68 1018.8
20260504034022 65 0 0.0 0.0 0.00 0.00 0.00 67 1019.1
20260504033519 65 0 0.0 1.0 0.00 0.00 0.00 67 1019.1
20260504033036 66 0 0.0 1.0 0.00 0.00 0.00 66 1019.1
20260504032519 66 231 0.0 1.0 0.00 0.00 0.00 66 1019.0
20260504032019 66 0 0.0 1.0 0.00 0.00 0.00 66 1018.9
20260504031537 66 0 0.0 0.0 0.00 0.00 0.00 65 1019.0
20260504031018 67 0 0.0 0.0 0.00 0.00 0.00 65 1018.9
20260504030518 67 0 0.0 0.0 0.00 0.00 0.00 64 1018.9
20260504030046 67 0 0.0 0.0 0.00 0.00 0.00 64 1018.9
20260504025518 67 0 0.0 0.0 0.00 0.00 0.00 63 1018.8
20260504025021 68 0 0.0 1.0 0.00 0.00 0.00 63 1018.7
20260504024536 68 0 0.0 1.0 0.00 0.00 0.00 63 1018.7
20260504024019 68 0 0.0 1.0 0.00 0.00 0.00 62 1018.7
20260504023519 68 0 0.0 1.0 0.00 0.00 0.00 62 1018.8
20260504023038 68 0 0.0 1.0 0.00 0.00 0.00 62 1018.8
20260504022519 68 0 0.0 1.0 0.00 0.00 0.00 62 1018.8
20260504022018 68 0 0.0 1.0 0.00 0.00 0.00 61 1018.7
20260504021541 69 0 0.0 1.0 0.00 0.00 0.00 61 1018.6
20260504021018 69 0 0.0 1.0 0.00 0.00 0.00 60 1018.6
20260504020519 69 0 0.0 0.0 0.00 0.00 0.00 60 1018.6
20260504020037 69 0 0.0 0.0 0.00 0.00 0.00 60 1018.5
20260504015519 70 0 0.0 0.0 0.00 0.00 0.00 59 1018.6
20260504015020 70 0 0.0 1.0 0.00 0.00 0.00 57 1018.6
20260504014536 70 0 0.0 1.0 0.00 0.00 0.00 57 1018.7
20260504014018 70 0 0.0 1.0 0.00 0.00 0.00 57 1018.5
20260504013518 70 0 0.0 0.0 0.00 0.00 0.00 57 1018.6
20260504013037 71 302 0.0 0.0 0.00 0.00 0.00 57 1018.5
20260504012518 71 0 0.0 1.0 0.00 0.00 0.00 56 1018.5
20260504012021 71 0 0.0 2.0 0.00 0.00 0.00 55 1018.4
20260504011536 71 0 0.0 2.0 0.00 0.00 0.00 55 1018.4
20260504011021 71 0 0.0 3.0 0.00 0.00 0.00 54 1018.3
20260504010520 72 0 0.0 3.0 0.00 0.00 0.00 53 1018.3
20260504010036 72 75 0.0 1.0 0.00 0.00 0.00 54 1018.4
20260504005519 72 257 0.0 1.0 0.00 0.00 0.00 54 1018.2
20260504005019 72 257 0.0 1.0 0.00 0.00 0.00 54 1018.3
20260504004541 72 0 0.0 1.0 0.00 0.00 0.00 53 1018.5
20260504004024 73 0 0.0 1.0 0.00 0.00 0.00 52 1018.4
20260504003518 73 0 0.0 1.0 0.00 0.00 0.00 52 1018.4
20260504003036 73 0 0.0 1.0 0.00 0.00 0.00 50 1018.2
20260504002521 74 104 0.0 1.0 0.00 0.00 0.00 50 1018.3
20260504002018 74 0 0.0 1.0 0.00 0.00 0.00 50 1018.3
20260504001539 74 0 0.0 2.0 0.00 0.00 0.00 48 1018.3
20260504001018 75 0 0.0 2.0 0.00 0.00 0.00 48 1018.2
20260504000519 75 0 0.0 1.0 0.00 0.00 0.00 47 1018.2
20260504000039 75 0 0.0 1.0 0.00 0.00 0.00 48 1018.4
20260503235521 75 0 0.0 1.0 0.00 0.00 0.00 47 1018.3
20260503235019 75 0 0.0 1.0 0.00 0.00 0.00 48 1018.4
20260503234539 76 98 0.0 1.0 0.00 0.00 0.00 46 1018.3
20260503234019 76 0 0.0 1.0 0.00 0.00 0.00 46 1018.3
20260503233519 76 0 0.0 1.0 0.00 0.00 0.00 47 1018.4
20260503233036 76 0 0.0 1.0 0.00 0.00 0.00 46 1018.5
20260503232519 77 0 0.0 7.0 0.00 0.00 0.00 45 1018.6
20260503232021 77 0 0.0 7.0 0.00 0.00 0.00 45 1018.7
20260503231537 77 0 0.0 2.0 0.00 0.00 0.00 44 1018.7
20260503231019 78 238 0.0 2.0 0.00 0.00 0.00 47 1018.7
20260503230519 78 0 0.0 2.0 0.00 0.00 0.00 46 1018.6
20260503230050 78 0 0.0 2.0 0.00 0.00 0.00 45 1018.6
20260503225518 78 172 0.0 1.0 0.00 0.00 0.00 44 1018.6
20260503225018 78 157 0.0 2.0 0.00 0.00 0.00 44 1018.7
20260503224534 79 0 0.0 2.0 0.00 0.00 0.00 43 1018.7
20260503224020 79 0 0.0 2.0 0.00 0.00 0.00 42 1018.8
20260503223522 79 101 0.0 2.0 0.00 0.00 0.00 42 1018.7
20260503223044 79 93 0.0 1.0 0.00 0.00 0.00 41 1018.7
20260503222518 79 0 0.0 1.0 0.00 0.00 0.00 41 1018.8
20260503222018 80 75 0.0 1.0 0.00 0.00 0.00 36 1019.1
20260503221535 80 329 0.0 1.0 0.00 0.00 0.00 37 1019.1
20260503221019 80 0 0.0 1.0 0.00 0.00 0.00 37 1019.2
20260503220519 80 0 0.0 1.0 0.00 0.00 0.00 36 1019.0
20260503220037 80 0 0.0 1.0 0.00 0.00 0.00 36 1019.1
20260503215519 81 0 0.0 1.0 0.00 0.00 0.00 38 1019.1
20260503215022 80 0 0.0 2.0 0.00 0.00 0.00 38 1019.1
20260503214550 80 0 0.0 4.0 0.00 0.00 0.00 37 1019.0
20260503214021 80 67 0.0 4.0 0.00 0.00 0.00 35 1019.2
20260503213521 81 0 0.0 6.0 0.00 0.00 0.00 34 1019.4
20260503213036 82 0 1.0 6.0 0.00 0.00 0.00 36 1019.4
20260503212519 82 143 0.0 2.0 0.00 0.00 0.00 36 1019.4
20260503212019 82 0 0.0 2.0 0.00 0.00 0.00 35 1019.6
20260503211538 82 0 0.0 2.0 0.00 0.00 0.00 35 1019.6
20260503211021 83 0 0.0 2.0 0.00 0.00 0.00 36 1019.7
20260503210521 83 158 0.0 2.0 0.00 0.00 0.00 36 1019.7
20260503210036 83 0 0.0 1.0 0.00 0.00 0.00 37 1019.7
20260503205519 82 0 0.0 4.0 0.00 0.00 0.00 36 1019.8
20260503205024 82 0 0.0 4.0 0.00 0.00 0.00 35 1019.7
20260503204542 82 51 0.0 4.0 0.00 0.00 0.00 35 1019.8
20260503204018 82 0 0.0 3.0 0.00 0.00 0.00 36 1019.9
20260503203525 82 0 0.0 3.0 0.00 0.00 0.00 37 1020.0
20260503203035 83 0 0.0 3.0 0.00 0.00 0.00 36 1020.2
20260503202523 82 0 0.0 3.0 0.00 0.00 0.00 36 1020.2
20260503202018 83 45 0.0 3.0 0.00 0.00 0.00 34 1020.5
20260503201541 83 0 0.0 3.0 0.00 0.00 0.00 39 1020.4
20260503201020 83 0 0.0 3.0 0.00 0.00 0.00 35 1020.4
20260503200519 82 0 0.0 3.0 0.00 0.00 0.00 39 1020.6
20260503200038 83 0 0.0 1.0 0.00 0.00 0.00 36 1020.8
20260503195519 83 0 0.0 5.0 0.00 0.00 0.00 36 1020.8
20260503195020 82 0 0.0 5.0 0.00 0.00 0.00 37 1020.9
20260503194542 82 36 0.0 5.0 0.00 0.00 0.00 35 1020.9
20260503194019 82 0 1.0 5.0 0.00 0.00 0.00 36 1021.0
20260503193519 82 38 0.0 2.0 0.00 0.00 0.00 35 1021.1
20260503193035 83 0 0.0 1.0 0.00 0.00 0.00 34 1021.1
20260503192518 83 0 0.0 3.0 0.00 0.00 0.00 38 1021.2
20260503192018 82 39 0.0 3.0 0.00 0.00 0.00 35 1021.3
20260503191535 82 43 0.0 3.0 0.00 0.00 0.00 34 1021.4
20260503191019 83 0 0.0 3.0 0.00 0.00 0.00 36 1021.5
20260503190519 83 0 0.0 3.0 0.00 0.00 0.00 37 1021.5
20260503190042 83 85 0.0 3.0 0.00 0.00 0.00 35 1021.7
20260503185518 83 345 1.0 3.0 0.00 0.00 0.00 33 1021.7
20260503185020 83 0 0.0 4.0 0.00 0.00 0.00 38 1021.7
20260503184541 83 0 0.0 4.0 0.00 0.00 0.00 40 1021.8
20260503184019 83 0 0.0 4.0 0.00 0.00 0.00 36 1021.8
20260503183520 83 50 0.0 3.0 0.00 0.00 0.00 39 1021.9
20260503183039 83 47 0.0 1.0 0.00 0.00 0.00 39 1021.9
20260503182520 82 0 0.0 1.0 0.00 0.00 0.00 39 1022.0
20260503182018 83 229 0.0 1.0 0.00 0.00 0.00 38 1022.0
20260503181554 82 0 0.0 3.0 0.00 0.00 0.00 41 1022.2
20260503181020 81 0 0.0 3.0 0.00 0.00 0.00 40 1022.3
20260503180519 81 40 0.0 3.0 0.00 0.00 0.00 40 1022.5
20260503180045 81 49 0.0 3.0 0.00 0.00 0.00 38 1022.5
20260503175522 81 16 0.0 3.0 0.00 0.00 0.00 36 1022.5
20260503175018 82 0 0.0 2.0 0.00 0.00 0.00 39 1022.7
20260503174535 83 88 0.0 1.0 0.00 0.00 0.00 37 1022.8